#timestamp,LO_Frequency,Hit,StdDev 
1674813615.7,286046999.8,N
1674813635.6,286047000.6,N
1674813655.4,286046999.3,N
1674813675.2,286046999.1,N
1674813695.1,286047000.7,N
1674813696.0,286047000.7,N
1674813715.8,286047001.1,N
1674813735.7,286047002.6,N
1674813755.5,286046999.8,N
1674813775.3,286047002.6,N
1674813795.2,286047001.6,N
1674813815.0,286047001.7,N
1674813815.9,286047001.7,N
1674813835.7,286047002.5,N
1674813855.6,286047000.1,N
1674813875.4,286047000.5,N
1674813895.3,286046999.7,N
1674813915.1,286046999.7,N
1674813916.0,286046999.7,N
1674813935.8,286047001.4,N
1674813955.7,286046999.9,N
1674813975.5,286047000.3,N
1674813995.4,286046999.0,N
1674814015.2,286047000.6,N
1674814035.0,286047001.8,N
1674814035.9,286047001.8,N
1674814055.8,286047002.6,N
1674814075.6,286047003.2,N
1674814095.5,286047001.5,N
1674814115.3,286047001.1,N
1674814135.1,286046999.4,N
1674814155.9,286046999.0,N
1674814175.7,286047000.0,N
1674814195.5,286047001.1,N
1674814215.4,286046999.3,N
1674814235.2,286047000.1,N
1674814255.1,286047003.5,N
1674814256.0,286047003.5,N
1674814275.8,286047001.8,N
1674814295.6,286047002.0,N
1674814315.5,286047002.8,N
1674814335.3,286046999.8,N
1674814355.1,286047000.2,N
1674814375.9,286047002.3,N
1674814395.7,286046998.7,N
1674814415.6,286046997.9,N
1674814435.4,286046997.8,N
1674814455.2,286046999.2,N
1674814475.1,286046997.4,N
1674814476.0,286046997.4,N
1674814495.8,286046997.1,N
1674814515.7,286046997.0,N
1674814535.5,286046995.7,N
1674814555.3,286046997.5,N
1674814575.2,286046997.5,N
1674814595.0,286046998.8,N
1674814595.9,286046998.8,N
1674814615.7,286047001.2,N
1674814635.6,286046999.3,N
1674814655.4,286046995.2,N
1674814675.3,286046999.2,N
1674814695.1,286046999.4,N
1674814696.0,286046999.4,N
1674814715.8,286047000.7,N
1674814735.7,286046998.9,N
1674814755.5,286046999.3,N
1674814775.3,286046999.1,N
1674814795.2,286047001.7,N
1674814815.0,286047002.2,N
1674814815.9,286047002.2,N
1674814835.8,286047001.9,N
1674814855.6,286047001.2,N
1674814875.4,286046999.4,N
1674814895.3,286046999.6,N
1674814915.1,286046999.0,N
1674814935.9,286047000.6,N
1674814955.7,286047002.4,N
1674814975.5,286047000.3,N
1674814995.4,286047000.7,N
1674815015.2,286046999.6,N
1674815035.0,286047000.5,N
1674815035.9,286047000.5,N
1674815055.8,286047000.5,N
1674815075.6,286047002.6,N
1674815095.5,286047000.3,N
1674815115.3,286046996.9,N
1674815135.1,286046994.6,Y
1674815155.9,286046994.8,P
1674815175.7,286046993.8,N
1674815195.5,286046993.8,N
1674815215.4,286046995.0,N
1674815235.2,286046997.2,N
1674815255.1,286046998.3,N
1674815256.0,286046998.3,N
1674815275.8,286046998.2,N
1674815295.6,286046998.6,N
1674815315.5,286047000.4,N
1674815335.3,286047000.6,N
1674815355.1,286047000.1,N
1674815375.9,286047001.1,N
1674815395.7,286046996.7,N
1674815415.6,286046999.6,N
1674815435.4,286046998.3,N
1674815455.2,286047001.1,N
1674815475.1,286047000.8,N
1674815476.0,286047000.8,N
1674815495.8,286047000.9,N
1674815515.7,286046998.6,N
1674815535.5,286046999.0,N
1674815555.3,286046999.0,N
1674815575.2,286046999.2,N
1674815595.9,286046998.9,N
1674815615.7,286047000.7,N
1674815635.6,286046998.1,N
1674815655.4,286046996.7,N
1674815675.3,286046997.6,N
1674815695.1,286046995.0,N
1674815696.0,286046995.0,N
1674815715.8,286046999.1,N
1674815735.7,286047001.1,N
1674815755.5,286047001.0,N
1674815775.3,286046998.7,N
1674815795.2,286047002.7,N
1674815815.0,286047001.6,N
1674815815.9,286047001.6,N
1674815835.8,286047000.8,N
1674815855.6,286046997.1,N
1674815875.4,286046996.5,N
1674815895.3,286047000.6,N
1674815915.1,286047001.2,N
1674815935.8,286046998.4,N
1674815955.7,286047000.8,N
1674815975.5,286046996.6,N
1674815995.4,286046999.6,N
1674816015.2,286046996.6,N
1674816035.0,286046996.8,N
1674816035.9,286046996.8,N
1674816055.8,286046996.5,N
1674816075.6,286046997.8,N
1674816095.4,286046997.3,N
1674816115.3,286046998.3,N
1674816135.1,286046999.1,N
1674816155.9,286046998.7,N
1674816175.7,286046996.9,N
1674816195.5,286046993.4,Y
1674816215.4,286046997.6,P
1674816235.2,286046997.8,P
1674816255.0,286046998.8,P
1674816256.0,286046998.8,N
1674816275.8,286046996.8,Y
1674816295.6,286047002.8,P
1674816315.5,286047002.4,N
1674816335.3,286047000.5,N
1674816355.1,286046999.3,N
1674816375.9,286046998.9,N
1674816395.7,286047002.7,N
1674816415.6,286047003.8,N
1674816435.4,286047003.2,N
1674816455.2,286047004.5,N
1674816475.1,286047007.6,Y
1674816476.0,286047007.6,P
1674816495.8,286047003.5,N
1674816515.7,286047005.9,N
1674816535.5,286047005.2,N
1674816555.3,286047003.8,N
1674816575.2,286047001.4,N
1674816595.0,286047004.4,N
1674816595.9,286047004.4,N
1674816615.8,286047001.6,N
1674816635.6,286047003.8,N
1674816655.7,286047002.9,N
1674816675.5,286047003.1,N
1674816695.3,286047003.3,N
1674816715.2,286047004.5,N
1674816735.0,286047003.1,N
1674816735.9,286047003.1,N
1674816755.8,286047000.1,N
1674816775.6,286046998.5,N
1674816795.4,286046998.7,N
1674816815.3,286046998.1,N
1674816835.1,286047000.0,N
1674816855.8,286047000.8,N
1674816875.7,286047000.2,N
1674816895.5,286047002.1,N
1674816915.4,286047003.7,N
1674816935.2,286047006.0,N
1674816955.0,286047005.8,N
1674816955.9,286047005.8,N
1674816975.8,286047005.4,N
1674816995.6,286047003.6,N
1674817015.5,286047001.5,N
1674817035.3,286046998.6,N
1674817055.1,286046999.5,N
1674817075.9,286046995.6,N
1674817095.7,286046996.9,N
1674817115.6,286046999.6,N
1674817135.4,286046998.3,N
1674817155.2,286046999.9,N
1674817175.1,286047000.1,N
1674817176.0,286047000.1,N
1674817195.8,286047001.5,N
